Date,TemperatureHighF,TemperatureAvgF,TemperatureLowF,DewpointHighF,DewpointAvgF,DewpointLowF,HumidityHigh,HumidityAvg,HumidityLow,PressureMaxIn,PressureMinIn,WindSpeedMaxMPH,WindSpeedAvgMPH,GustSpeedMaxMPH,PrecipitationSumIn
2013-1-1,51.3,33.4,16.7,26.4,10.6,-3.5,62,40,20,29.42,29.19,25,8,30,0.15
2013-1-2,43.2,22.8,11.5,12.2,1.5,-7.1,56,40,22,29.55,29.40,17,7,24,0.00
2013-1-3,39.0,17.1,3.7,4.3,-10.3,-19.4,56,30,19,29.64,29.49,12,5,12,0.00
2013-1-4,42.1,30.2,11.8,21.8,15.5,1.3,70,55,40,29.47,29.29,21,7,21,0.00
2013-1-5,57.0,34.0,18.7,23.4,14.5,7.7,78,49,19,29.77,29.33,17,4,18,0.00
2013-1-6,59.4,37.1,21.0,30.7,22.9,14.6,79,60,26,29.72,29.43,13,4,17,0.00
2013-1-7,47.8,32.0,18.5,30.6,22.6,13.6,86,69,43,29.91,29.46,13,4,13,0.00
2013-1-8,61.2,37.3,18.7,28.0,24.2,13.8,91,63,23,29.87,29.75,18,6,18,0.00
2013-1-9,50.5,36.4,21.2,33.3,26.1,17.4,86,68,36,29.91,29.47,18,5,18,0.00
2013-1-10,57.4,43.1,31.3,26.6,22.3,17.4,65,46,24,30.03,29.50,26,10,26,0.28
2013-1-11,45.5,35.6,23.5,37.5,27.6,18.3,95,74,43,30.03,29.74,4,2,4,0.06
2013-1-12,48.4,42.7,39.2,44.6,41.0,37.9,96,94,86,29.73,29.62,5,1,5,0.07
2013-1-13,51.8,47.1,42.3,49.3,45.5,40.9,96,94,90,29.65,29.47,11,3,13,0.00
2013-1-14,78.1,54.5,41.4,51.6,41.4,25.9,91,65,29,29.75,29.35,13,7,13,0.01
2013-1-15,50.5,38.7,30.9,29.2,25.3,21.9,76,59,41,29.82,29.73,10,3,10,0.00
2013-1-16,35.2,32.8,30.2,33.0,29.0,21.4,97,87,60,29.75,29.31,6,2,6,0.05
2013-1-17,55.8,36.6,28.4,38.4,26.1,-0.6,99,69,28,29.60,29.32,13,4,13,0.28
2013-1-18,37.2,22.5,12.7,6.2,-5.7,-16.4,67,31,18,29.95,29.58,17,7,17,0.11
2013-1-19,60.4,40.2,22.8,32.5,20.3,3.1,75,47,22,29.88,29.37,20,9,20,0.04
2013-1-20,65.8,44.0,27.5,33.9,19.8,2.0,74,40,21,29.41,29.00,30,13,42,1.52
2013-1-21,61.7,31.2,19.4,26.8,4.0,-8.1,75,34,19,29.92,29.41,17,5,21,0.52
2013-1-22,27.7,21.2,14.2,17.8,0.1,-12.2,79,42,24,30.06,29.74,18,7,24,0.00
2013-1-23,16.3,11.6,6.1,-3.6,-18.8,-25.0,46,24,19,30.13,30.05,21,8,22,0.00
2013-1-24,18.3,12.1,1.8,-16.7,-19.8,-25.6,27,22,18,30.19,30.03,23,12,27,0.00
2013-1-25,10.9,9.5,8.8,-17.9,-20.0,-22.7,27,24,20,30.26,30.19,19,9,21,0.00
2013-1-26,25.5,19.4,12.6,5.8,-6.5,-17.5,68,33,19,30.21,30.00,24,9,25,0.00
2013-1-27,29.8,21.2,14.5,-3.0,-7.4,-13.2,45,29,18,30.47,30.21,20,8,20,0.00
2013-1-28,33.6,25.3,16.2,23.1,4.5,-15.2,82,45,21,30.45,30.03,8,2,8,0.00
2013-1-29,36.3,31.2,25.5,29.7,24.9,20.7,84,78,69,30.19,30.03,8,3,8,0.07
2013-1-30,60.8,51.4,34.0,56.2,48.1,29.9,95,89,82,30.15,29.45,22,8,24,0.08
2013-1-31,61.7,56.0,45.9,57.8,50.2,28.9,92,82,46,29.43,28.92,31,17,36,0.20